Theta_e
289 283 282 281 282 284 286 283 285 287 291 290 289 288 288 288 286 288 288 290 290 286 282 283 285 287 288 288 289 291 291 290 290 290 291 290 290 290 289 288 288 287 286 289 289 289 289 290 289 289 290 290 289 288 288 289 289 288 290 289 288 289 290 289 288 290 288 287 287 287 287 287 286 288 290 288 287 288 287 289 289 289 289 289 288 290
289 284 282 283 284 284 282 282 285 290 291 290 289 288 286 286 285 288 288 291 292 286 282 284 286 287 286 288 289 291 290 288 289 290 291 290 290 289 288 288 288 287 288 290 288 288 288 288 288 288 288 293 287 288 288 288 288 288 289 288 289 288 289 289 288 289 289 288 287 287 287 286 286 286 285 285 287 287 291 290 289 289 289 288 288 290
282 282 284 286 286 285 282 280 288 290 289 289 288 287 285 284 287 289 290 291 290 288 284 288 288 286 286 288 289 289 289 289 290 291 291 290 289 288 288 288 288 287 286 287 287 287 287 288 288 287 288 288 287 287 287 287 288 287 288 288 290 289 289 289 292 287 288 287 288 287 286 287 285 286 287 286 288 289 289 288 288 288 288 288 288 288
281 282 286 287 285 287 285 286 289 288 289 288 287 285 283 286 287 283 289 289 289 288 285 287 287 286 287 289 289 290 290 290 291 290 290 290 289 289 289 289 288 286 286 286 286 287 287 287 286 286 286 287 287 289 288 287 286 286 293 287 287 288 288 287 289 295 289 290 291 289 288 287 286 287 288 287 286 286 286 287 288 288 288 288 288 288
280 285 286 286 289 290 287 288 288 287 284 282 287 285 285 285 285 288 286 288 289 289 288 288 288 288 287 287 288 290 291 289 289 288 286 286 287 288 288 287 288 287 287 286 286 286 285 285 286 287 287 286 287 287 287 287 286 288 287 287 287 287 287 286 291 290 289 290 286 286 286 285 284 284 283 283 284 284 288 290 287 287 287 287 288 288
282 284 284 285 286 289 288 285 285 287 283 283 283 285 286 286 286 286 288 288 285 284 288 288 283 284 286 285 287 290 289 287 285 284 284 285 286 286 286 286 286 288 287 287 287 286 286 286 286 286 286 287 286 286 287 287 287 287 287 287 286 286 286 286 286 287 289 288 287 284 284 283 282 283 282 282 283 284 285 285 287 287 287 287 287 287
281 286 281 285 285 285 286 285 283 283 284 283 283 285 287 287 287 286 287 288 283 282 288 288 280 279 285 286 287 288 288 287 286 285 286 286 286 286 287 287 287 287 287 286 286 285 285 286 285 286 285 286 286 287 286 287 287 287 287 286 286 286 286 287 287 287 291 286 285 284 284 283 283 282 283 283 284 284 286 286 286 287 287 287 287 287
283 283 282 283 284 285 286 285 285 284 285 281 286 286 288 287 286 285 285 283 283 288 288 284 281 277 280 285 288 289 288 288 287 287 287 287 287 287 288 288 288 287 287 287 287 286 286 287 286 286 286 286 287 287 286 287 287 287 287 287 286 286 290 288 287 287 288 286 285 284 283 286 284 283 284 285 285 285 287 287 287 286 287 287 287 287
281 279 281 281 278 283 283 283 282 283 286 284 286 289 287 287 286 286 286 285 284 284 280 281 279 277 276 280 284 287 286 286 288 288 289 289 288 289 289 289 289 289 288 288 287 287 287 287 287 287 286 286 286 286 287 287 287 287 286 287 286 286 286 287 286 289 286 289 287 285 285 284 286 286 286 286 287 286 286 284 286 286 286 286 287 287
283 283 283 281 278 281 281 282 283 287 287 286 288 288 288 287 286 286 285 285 281 276 275 280 279 273 273 277 283 283 283 285 288 290 291 291 291 290 289 288 288 288 288 288 289 289 289 289 288 287 286 286 286 287 288 287 286 286 285 286 287 286 286 286 285 286 287 286 288 287 285 284 285 285 285 283 284 284 284 284 285 285 285 285 286 286
285 289 289 279 279 282 281 283 283 284 287 291 291 289 286 286 284 282 281 279 276 270 276 279 278 279 274 278 283 284 284 287 288 288 289 289 289 289 289 289 289 289 289 288 288 288 289 287 287 287 286 286 286 286 286 286 286 285 285 285 285 286 286 286 286 285 285 285 284 285 285 285 285 285 284 283 284 284 284 284 285 285 285 285 285 285
281 281 279 283 285 280 283 287 285 287 290 291 286 285 287 285 286 282 278 276 270 267 274 278 278 279 270 280 281 287 285 285 288 289 290 290 289 290 290 290 290 290 289 287 286 286 286 286 286 285 285 286 286 285 286 285 286 286 286 285 285 286 286 286 286 285 285 285 285 284 285 285 285 284 284 284 284 284 284 284 284 285 284 285 286 286
282 281 283 284 286 284 284 288 287 290 288 288 287 286 282 277 275 273 274 272 262 265 275 277 278 279 276 278 282 284 289 289 287 288 289 289 290 290 290 290 289 288 287 286 285 285 285 285 286 285 285 285 284 286 286 286 286 285 285 285 285 287 286 286 285 285 286 285 285 285 285 285 286 285 284 284 284 284 284 285 284 284 284 285 286 287
281 283 282 282 282 286 285 285 284 286 286 287 284 278 276 275 271 273 271 265 264 273 276 278 278 277 277 279 281 282 283 287 287 287 287 287 286 287 289 289 288 287 285 285 285 285 285 285 285 285 285 285 285 285 285 285 286 286 287 286 285 287 287 286 286 286 286 286 286 285 285 285 285 284 285 285 285 285 285 285 284 285 285 286 286 286
276 278 281 281 280 283 282 283 284 287 289 288 283 280 274 268 271 271 268 265 268 269 275 278 275 270 277 279 283 283 282 283 284 284 284 285 286 286 284 285 285 286 285 284 284 285 285 285 284 285 285 284 284 284 284 284 285 285 285 286 286 286 287 286 286 285 285 286 286 285 285 285 285 285 285 285 286 285 285 286 285 287 286 286 287 286
277 278 283 284 284 282 280 283 284 285 288 285 283 280 278 274 276 271 269 266 264 271 270 274 273 275 278 283 283 280 280 282 280 282 283 285 286 285 286 286 285 285 285 284 284 284 284 284 283 284 284 284 284 284 284 284 285 284 285 285 285 286 286 286 287 286 286 286 286 285 285 285 286 288 288 288 287 287 286 286 286 287 286 287 286 287
279 277 283 284 284 281 281 283 284 285 281 284 280 278 280 279 277 269 269 272 270 269 269 270 278 278 278 281 282 277 280 283 279 281 281 283 284 284 285 286 285 285 284 284 284 283 284 283 283 283 283 283 284 284 285 285 284 284 285 285 285 285 284 285 286 286 285 286 285 285 285 285 285 286 286 286 287 287 287 287 286 286 286 286 286 287
278 277 284 282 281 282 282 283 284 284 283 279 278 279 280 278 273 269 268 262 260 265 267 272 273 276 275 273 278 280 280 282 279 280 280 282 281 284 284 284 285 285 285 285 285 284 284 284 284 284 284 284 285 285 284 285 285 285 285 285 285 285 285 286 285 285 285 285 285 285 286 286 286 286 286 286 286 286 286 286 286 286 286 285 286 286
280 278 282 282 280 282 283 285 284 282 282 282 281 279 281 273 274 273 269 265 265 264 265 273 274 274 275 276 278 279 280 281 282 279 280 282 283 283 284 284 285 285 286 286 286 286 287 286 287 287 288 287 286 286 285 285 285 285 285 284 284 286 286 286 286 286 286 286 286 287 287 286 286 285 285 286 286 285 285 285 285 284 285 284 285 285
280 278 277 281 282 281 281 282 275 277 280 280 280 278 274 274 268 271 268 266 269 263 261 269 269 273 277 274 275 276 276 277 280 281 281 282 283 284 284 284 285 285 285 285 285 285 285 285 285 286 286 286 286 285 285 284 284 285 286 285 286 286 285 285 285 286 286 286 285 285 284 285 285 285 285 285 284 285 284 284 284 284 283 284 284 283
276 278 272 280 281 280 276 276 276 276 274 276 274 273 275 273 275 274 269 272 268 261 256 264 266 270 274 275 276 278 277 277 279 281 281 283 283 284 284 284 285 284 284 284 284 284 283 283 283 283 283 282 282 282 283 283 285 285 285 285 285 286 286 286 286 285 286 285 285 285 285 285 284 285 284 284 284 284 283 283 283 283 283 282 283 283
273 272 272 272 273 273 274 277 278 276 276 275 274 275 274 272 271 269 268 271 262 267 262 262 263 269 275 276 277 278 278 279 279 280 281 282 282 281 283 283 282 283 283 282 281 281 282 282 282 282 282 282 282 284 284 285 284 285 286 286 285 284 285 285 286 285 285 285 284 284 284 284 283 283 283 283 283 283 282 282 282 282 282 282 282 282
277 273 272 268 270 273 275 278 277 277 277 277 276 275 272 272 267 260 266 267 265 269 265 261 263 268 274 276 278 278 279 278 279 278 281 281 280 280 279 280 281 281 282 283 282 281 281 282 282 282 283 283 283 284 283 283 284 285 285 284 284 285 286 285 285 284 284 284 284 284 283 283 283 282 282 282 282 282 282 282 282 282 281 282 282 282
282 264 265 266 268 272 275 272 273 270 275 276 276 275 274 273 274 270 268 268 266 264 267 267 263 267 275 277 277 278 278 278 277 278 280 279 278 279 278 280 281 282 282 281 281 281 282 282 281 282 283 285 284 284 284 284 284 283 283 284 283 284 285 284 285 284 283 283 283 282 282 282 282 282 281 282 281 281 281 281 281 282 282 282 282 282
272 271 271 261 261 263 265 269 272 271 271 268 274 275 274 274 273 270 266 261 268 266 265 263 263 265 277 276 276 278 278 277 278 277 278 280 279 279 279 279 280 280 281 281 281 281 281 282 283 284 282 283 284 283 283 283 283 283 284 283 284 285 284 284 283 283 282 281 282 282 282 281 281 280 281 281 281 280 281 281 281 282 281 281 281 281
272 267 265 262 263 262 264 264 265 265 268 271 274 274 275 274 272 272 273 262 265 267 267 266 259 268 271 275 278 278 276 277 275 275 276 278 278 279 280 280 280 280 281 280 281 282 283 282 282 282 282 283 283 283 282 282 283 283 283 283 283 285 284 284 281 281 281 281 282 281 281 280 280 280 280 281 280 280 280 281 281 281 281 281 280 280
264 263 263 258 257 259 260 265 270 275 272 268 270 274 274 274 272 272 268 265 267 264 262 264 271 274 276 276 276 277 274 276 277 278 280 280 279 279 278 279 280 281 281 281 280 281 280 281 281 281 281 282 282 281 281 282 283 283 282 283 282 282 282 282 281 281 281 280 280 280 280 280 280 280 280 280 279 280 281 281 280 280 280 280 279 279
259 265 263 263 263 267 270 270 271 273 268 269 270 271 273 272 272 270 270 269 270 271 268 273 272 273 274 275 275 276 277 275 275 275 276 277 279 280 280 279 284 281 280 279 279 279 280 281 281 280 281 281 281 281 282 281 282 282 283 284 282 282 282 282 281 280 280 280 280 280 280 280 280 280 279 279 280 280 280 280 280 279 279 279 278 277
263 265 266 265 265 268 270 270 271 271 270 271 269 269 270 272 269 268 267 272 270 268 266 271 270 272 274 275 275 277 278 279 278 278 278 279 278 278 279 280 280 280 279 279 280 280 280 281 281 281 281 281 280 282 282 281 281 281 281 280 281 281 282 281 281 280 280 280 280 280 279 280 280 279 279 280 280 280 279 279 279 279 278 277 276 276
269 264 263 265 265 265 267 270 270 269 268 269 269 270 271 270 268 268 269 272 269 268 269 272 270 273 273 274 275 277 277 277 277 277 278 279 279 279 280 280 280 280 279 280 280 280 280 280 280 280 280 280 280 281 281 281 281 281 281 282 282 282 282 281 280 281 280 280 279 279 279 279 279 279 279 280 280 279 278 278 278 277 276 275 275 274
276 269 273 264 264 265 268 270 268 267 266 266 267 271 271 271 271 270 269 270 269 268 266 271 271 272 275 276 276 277 276 277 278 279 279 278 278 279 280 279 280 280 280 280 280 280 280 279 279 279 279 280 280 281 281 281 281 280 279 281 281 281 282 281 281 280 280 280 279 279 279 279 279 279 280 279 278 277 277 277 276 275 274 274 273 273
271 266 263 263 268 266 268 267 266 264 267 266 265 266 267 270 269 269 271 273 272 270 270 269 269 271 275 276 277 277 279 280 280 279 278 279 279 280 280 280 280 281 281 281 280 279 279 280 280 280 280 280 280 280 280 281 281 280 281 280 280 281 280 280 280 280 279 279 279 279 279 279 279 279 279 278 277 276 275 275 274 274 273 273 273 273
266 268 266 265 268 265 269 268 266 266 268 270 270 270 273 271 273 273 274 275 275 274 271 268 272 275 278 281 280 281 278 278 277 278 279 279 279 279 280 280 281 280 280 280 280 280 280 280 280 280 280 279 280 280 281 281 281 281 281 281 281 280 280 280 279 279 279 278 278 278 279 279 278 278 277 276 275 275 274 274 273 273 272 272 272 272
269 267 265 267 272 268 269 263 264 269 268 266 275 276 275 275 274 274 275 275 276 276 274 274 276 278 277 278 280 278 279 280 282 280 281 282 281 280 279 279 280 281 280 279 279 279 280 280 280 281 280 280 280 280 280 280 281 281 280 280 280 280 279 279 279 279 278 279 279 279 278 278 277 277 276 275 274 274 273 273 272 272 272 272 272 272
272 264 265 262 268 272 264 267 270 265 265 275 277 276 275 275 275 277 275 275 276 277 276 276 276 276 277 278 279 279 279 280 280 280 281 280 279 279 280 280 281 281 281 280 280 280 280 280 280 280 280 280 281 281 280 280 280 280 281 279 280 279 279 278 278 278 278 278 278 278 277 277 276 275 274 273 273 273 273 272 272 272 272 272 271 271
266 267 269 268 265 268 267 265 266 267 272 278 277 277 276 276 275 276 277 278 276 278 278 277 278 277 277 278 278 278 278 279 278 279 279 280 279 281 279 282 282 280 280 281 281 281 281 281 281 281 281 281 280 279 280 280 279 281 281 278 279 278 278 278 278 278 278 278 277 277 276 275 275 274 273 273 272 272 272 272 272 271 271 271 271 271
272 269 266 269 268 271 265 266 271 271 276 276 277 276 275 275 275 276 274 278 278 277 278 278 278 278 278 277 278 278 277 278 277 281 280 282 281 280 282 282 282 281 281 281 281 282 281 280 280 280 280 280 279 279 280 279 279 279 279 279 278 278 278 278 278 277 277 277 277 276 275 274 273 272 272 272 272 272 272 271 271 271 271 270 270 270
276 273 270 272 270 263 269 267 267 268 266 270 275 278 277 278 276 278 277 276 278 276 278 279 279 279 278 278 278 278 276 279 277 279 281 281 280 281 281 281 280 280 280 280 280 279 279 279 279 279 280 280 279 279 279 278 279 278 279 278 278 277 277 277 277 277 277 276 275 275 274 273 272 272 272 272 272 271 271 271 271 271 271 270 269 269
274 273 269 270 270 268 266 268 266 268 271 273 277 278 279 277 277 276 275 271 277 279 278 279 279 278 278 279 279 278 276 274 274 276 279 280 280 280 281 280 279 279 279 279 280 280 280 280 280 280 279 279 280 280 279 279 278 278 279 278 277 277 277 277 277 277 276 275 274 274 273 272 272 272 271 271 271 271 271 270 270 270 270 270 269 268
267 264 269 270 267 265 263 267 269 264 271 279 276 278 278 276 278 278 272 269 280 278 278 278 279 278 278 278 277 278 277 273 276 276 277 280 280 280 280 280 280 280 279 279 278 279 279 280 280 280 280 280 280 279 278 278 278 278 278 277 277 277 276 277 277 276 276 274 273 273 272 272 271 271 271 271 271 271 270 270 270 270 269 269 268 267
267 268 267 271 264 270 274 264 265 270 277 278 277 277 277 276 279 271 267 277 279 278 278 279 279 278 277 278 278 279 279 279 279 281 280 279 280 281 279 279 279 279 279 280 280 282 280 279 280 281 281 280 280 278 278 278 278 278 277 276 276 276 277 277 276 275 274 273 273 272 272 272 271 271 271 270 270 270 268 269 269 268 267 267 267 266
267 264 268 264 266 268 262 270 271 269 277 277 276 277 277 278 270 266 277 279 278 279 278 279 280 278 278 279 279 280 279 279 279 278 279 280 280 280 279 279 278 279 279 279 280 280 280 278 278 278 279 278 278 278 278 278 278 277 276 276 276 276 276 276 275 273 273 273 272 272 272 271 270 268 269 267 266 267 267 267 267 267 266 265 265 265
271 269 267 268 266 265 261 264 266 270 276 279 278 277 279 275 274 277 279 279 279 279 279 279 280 280 279 279 279 280 280 279 279 280 280 279 279 279 279 279 279 279 279 279 280 279 279 279 279 279 279 278 278 278 278 277 277 276 276 276 276 276 275 274 273 273 272 271 270 270 269 268 266 266 266 265 265 265 265 265 264 264 264 265 264 264
275 273 266 265 270 267 267 266 268 274 279 281 282 277 277 280 279 279 279 282 279 278 279 280 279 280 279 280 279 278 278 279 279 278 278 278 278 278 277 277 277 278 278 278 278 278 278 279 278 278 278 277 277 277 278 277 277 276 274 276 276 273 271 271 270 269 269 268 268 268 266 265 265 264 264 264 263 263 264 264 263 263 262 262 262 262
278 276 272 275 273 272 268 273 276 275 278 281 280 277 277 279 279 279 278 278 280 280 278 280 282 280 279 279 279 279 278 278 279 279 279 279 278 278 278 279 278 278 279 279 279 279 278 279 280 278 278 277 276 276 277 276 277 273 274 276 274 271 269 268 268 268 267 267 267 265 264 264 264 264 263 263 262 262 263 263 261 262 261 259 260 261
278 278 277 278 276 275 276 280 280 278 278 279 281 279 279 282 279 278 280 281 279 279 279 281 281 280 278 278 280 278 279 279 279 279 278 278 278 278 278 278 277 277 277 277 277 277 278 277 277 277 278 278 276 276 275 276 275 274 276 276 273 271 268 267 265 265 265 264 264 264 262 263 263 262 261 261 260 260 260 259 260 260 261 259 259 259
275 275 276 275 275 277 274 277 278 278 277 278 281 281 280 279 280 279 279 280 280 279 279 279 281 280 279 278 280 280 279 279 278 279 278 278 278 278 278 278 278 277 278 279 279 278 277 276 279 278 277 277 277 275 275 274 274 275 275 273 272 270 267 266 264 265 264 263 262 261 261 263 263 263 262 261 262 261 260 260 261 259 260 260 260 259
277 276 277 274 274 275 276 275 276 276 277 277 278 280 281 281 281 280 282 281 281 279 280 281 279 279 278 278 279 279 280 279 278 279 278 278 279 278 278 278 278 277 277 277 277 277 276 277 277 277 275 277 277 275 274 273 273 272 272 271 269 267 267 267 265 266 265 263 263 263 263 263 266 264 261 260 261 263 263 262 260 259 261 262 262 261
276 278 272 273 277 276 277 280 281 279 278 279 279 280 282 283 282 280 280 280 280 280 280 279 279 279 279 280 279 279 279 279 278 278 278 278 278 277 278 278 278 278 277 278 278 276 278 277 276 276 275 276 276 275 273 271 271 270 270 270 267 267 268 269 270 268 266 264 263 263 264 262 262 261 261 261 261 261 261 261 262 262 263 264 264 261
277 276 275 275 273 272 275 279 278 276 275 282 281 279 280 281 281 280 279 278 279 280 280 280 280 277 278 278 279 278 279 279 278 277 277 278 278 278 277 277 277 277 277 277 277 276 276 275 275 275 275 275 275 274 272 270 271 269 269 268 267 269 270 270 269 268 266 264 263 264 263 262 262 262 261 261 261 260 259 265 266 267 265 263 266 268
280 280 278 276 275 275 278 280 279 279 278 277 283 283 278 278 279 279 280 280 280 281 280 280 280 279 278 277 277 278 279 279 279 277 277 277 278 278 278 277 277 277 278 277 276 275 275 276 274 273 273 275 274 273 271 271 271 271 270 270 270 270 270 270 269 268 266 264 263 265 263 262 262 261 260 261 261 260 260 260 259 266 268 268 266 268
Wind_Speed
1 8 7 5 2 2 3 1 3 6 12 12 11 12 9 11 6 3 3 6 6 9 6 3 5 6 6 3 2 3 2 1 1 3 2 2 3 3 2 4 5 4 4 3 4 3 3 3 3 2 0 0 0 1 1 1 1 1 0 2 3 2 2 3 3 2 2 2 3 2 3 1 3 3 3 3 3 3 4 4 4 4 5 5 5 5
5 10 5 1 2 3 3 1 2 13 11 13 12 12 8 7 8 1 3 2 2 7 2 1 5 5 3 2 2 2 2 3 3 3 4 3 3 3 4 4 4 4 1 1 2 3 3 3 4 3 2 1 2 1 0 1 0 0 0 2 0 1 2 2 1 0 0 0 0 0 4 3 3 4 4 4 5 4 5 4 5 5 5 5 5 5
8 6 3 5 3 3 0 1 3 13 13 10 11 9 11 5 7 5 6 5 3 8 3 2 7 3 3 1 3 4 4 2 3 5 5 5 4 4 4 4 4 2 3 3 4 4 4 4 4 4 4 3 3 2 2 1 1 0 0 1 0 0 0 0 1 0 0 0 1 0 2 1 4 3 4 3 5 4 6 6 6 5 5 5 6 6
8 3 7 8 3 4 5 5 11 10 9 10 9 10 9 8 10 6 2 4 6 4 8 3 7 2 3 1 3 4 4 4 4 6 6 6 6 6 6 6 6 5 4 5 6 6 5 5 5 4 4 4 3 3 2 2 2 1 1 2 1 1 1 2 2 0 1 2 1 1 3 3 3 5 3 3 4 4 4 6 4 4 4 5 6 6
4 2 5 4 1 9 12 10 12 10 7 3 9 9 10 7 3 6 5 6 11 11 5 10 6 1 1 2 3 3 5 3 1 0 1 2 4 4 3 2 5 7 7 6 5 5 5 5 7 7 6 3 4 4 4 4 4 3 4 4 3 3 3 3 1 1 1 1 3 4 4 2 3 1 3 5 6 3 3 5 5 7 4 5 6 6
6 4 3 2 6 11 13 8 6 12 8 4 3 5 9 8 14 11 9 8 4 2 4 2 4 2 3 4 6 2 2 4 2 2 5 5 5 3 4 5 4 5 4 7 8 8 8 8 6 5 4 4 4 5 5 4 5 4 4 4 4 3 3 3 3 3 1 1 1 3 4 6 4 6 6 6 5 7 7 7 6 8 6 5 5 6
1 5 3 6 9 10 10 6 3 2 9 8 2 2 11 13 11 9 8 8 6 6 5 0 4 3 1 5 5 4 4 7 3 4 6 6 6 5 7 7 6 6 5 5 4 4 5 7 6 6 5 5 5 7 4 4 5 5 5 4 4 4 4 3 3 2 2 2 2 3 4 4 4 5 6 3 4 4 6 5 7 7 8 6 5 6
5 7 6 8 8 9 9 8 2 3 11 3 1 7 11 14 11 6 9 5 4 3 2 3 1 3 0 6 4 5 4 6 5 7 8 7 7 9 8 8 8 7 6 6 7 7 8 8 8 9 7 6 8 6 4 5 5 6 6 5 5 4 4 4 4 3 3 4 4 4 5 4 5 6 8 7 7 4 4 6 8 6 7 7 6 6
2 5 6 5 5 6 7 3 2 1 5 6 5 10 8 10 7 9 8 7 4 7 1 1 2 3 2 3 3 3 4 6 10 9 8 8 10 12 11 9 7 8 8 8 8 9 10 10 9 7 6 5 5 5 6 7 6 6 5 4 4 4 4 5 4 4 4 5 5 6 5 6 6 5 7 6 5 6 5 5 7 6 7 7 7 6
1 1 1 4 1 6 1 2 1 6 11 2 7 9 8 7 5 7 7 7 2 5 3 1 2 1 2 3 1 2 1 6 9 10 10 10 10 9 7 5 6 6 8 9 11 10 9 8 5 3 3 3 7 7 5 5 4 4 4 4 4 6 5 5 5 4 5 5 4 5 5 6 8 4 6 3 6 6 4 5 7 6 6 6 6 7
0 1 2 5 1 1 1 1 1 1 2 11 9 10 6 7 5 4 6 4 5 1 4 2 2 1 1 3 6 7 7 6 3 4 5 5 5 5 6 8 9 10 10 9 8 8 6 1 1 2 5 6 5 5 5 5 4 4 4 4 5 7 6 5 6 5 7 5 4 6 6 6 7 8 5 6 7 6 5 5 6 6 6 6 6 6
3 2 4 2 2 1 1 4 3 2 7 9 5 6 9 6 5 5 3 6 5 4 6 2 1 1 1 2 4 7 3 3 4 5 6 7 6 7 7 9 10 8 6 5 4 5 4 3 2 3 5 6 7 5 5 4 4 4 4 4 6 7 7 6 6 4 7 5 5 5 6 7 8 7 6 6 7 7 6 6 6 6 5 6 5 5
10 7 2 5 3 4 1 11 5 5 4 6 8 7 9 4 3 1 2 1 1 4 1 3 1 1 2 2 2 3 8 5 2 4 4 5 6 5 5 5 4 3 3 4 5 4 4 5 6 5 6 5 5 6 6 6 4 4 4 5 6 10 7 6 5 5 6 5 6 6 6 7 7 6 6 6 6 6 6 6 5 5 5 6 6 6
4 2 5 7 2 3 1 11 6 6 2 6 6 5 5 8 1 5 1 1 2 4 4 1 1 1 3 4 2 3 5 3 2 0 1 1 2 4 4 4 3 2 4 4 4 5 5 5 5 5 5 6 6 6 5 4 4 5 5 6 5 11 7 5 4 5 5 6 7 5 6 6 5 5 4 5 6 6 5 4 4 4 5 5 5 6
4 3 8 6 2 4 4 4 2 6 9 6 2 2 3 4 4 6 4 4 6 4 1 2 2 4 4 3 1 1 2 2 1 1 2 1 1 1 0 2 2 3 4 4 4 5 5 5 5 6 5 5 5 5 4 4 6 5 5 5 6 8 9 5 5 4 5 7 6 5 4 5 4 5 6 6 4 4 4 3 3 4 5 4 5 5
2 2 3 2 1 2 3 1 2 4 6 1 2 3 6 1 4 5 5 6 3 4 2 1 3 1 2 0 2 1 1 2 4 3 3 3 3 3 4 4 1 1 2 2 3 4 4 5 4 4 4 5 5 5 4 5 6 5 6 5 5 6 6 5 5 5 5 6 5 4 4 5 4 4 3 3 3 3 2 3 3 4 4 4 5 5
2 6 3 5 2 3 3 0 1 1 5 3 2 0 1 2 8 5 3 2 3 6 1 0 5 3 5 2 1 4 2 1 4 4 4 3 3 3 4 4 3 2 1 0 1 2 3 3 3 3 4 4 4 4 5 5 3 4 4 4 5 5 4 5 5 5 4 4 4 4 3 3 3 3 3 3 4 4 3 2 3 3 4 4 4 5
5 4 1 4 6 1 1 0 1 5 1 5 2 2 1 2 5 3 3 2 3 3 3 1 2 2 2 2 2 1 0 0 2 3 3 3 4 5 4 4 3 3 2 1 1 1 2 2 3 3 3 4 4 4 4 4 3 3 3 4 4 4 4 4 4 4 3 3 3 3 3 2 1 2 3 2 3 3 3 4 4 4 5 4 4 3
1 9 3 1 1 4 2 1 4 1 2 2 4 3 1 1 0 3 6 1 1 0 0 1 1 3 4 2 0 2 2 1 0 3 4 5 5 4 4 4 4 3 3 4 3 3 3 2 2 1 1 2 1 1 2 3 3 3 2 2 3 4 4 4 4 3 3 2 2 2 2 2 3 3 3 2 2 3 4 4 4 4 3 4 4 5
1 5 1 1 0 2 3 4 2 5 4 2 1 2 0 2 1 3 1 3 7 1 2 3 3 3 5 3 6 4 5 4 0 2 2 1 1 1 2 2 2 2 2 2 2 2 2 2 2 2 2 3 4 4 4 4 3 4 4 4 3 3 3 3 3 2 3 2 1 3 3 3 2 2 3 3 3 4 4 3 3 4 4 5 4 4
0 1 5 1 2 2 2 5 1 1 1 5 4 1 1 3 1 4 1 2 2 6 3 3 1 5 4 4 5 6 4 4 3 2 1 1 0 1 0 0 0 0 1 1 1 2 3 3 3 3 3 3 4 2 3 3 3 3 3 3 3 3 4 4 4 3 3 3 3 3 4 3 3 4 4 4 4 4 3 3 3 4 4 4 5 4
2 3 5 2 6 5 1 0 0 1 0 1 0 2 1 4 4 2 1 1 2 3 3 5 3 5 5 1 2 1 2 2 4 4 3 1 1 2 1 1 1 1 2 2 3 3 3 3 4 4 4 3 3 4 4 4 4 5 5 4 4 3 3 3 4 3 3 1 2 4 3 3 3 4 4 4 3 4 3 4 4 4 4 4 5 4
1 3 7 5 1 0 2 0 0 0 1 1 2 1 2 1 4 3 2 3 2 1 4 2 3 4 1 2 1 2 2 3 3 3 2 2 2 2 3 3 3 3 3 3 3 3 4 4 4 4 4 4 4 4 4 4 4 3 4 4 3 1 4 1 3 1 1 4 4 3 2 3 4 3 4 4 4 4 4 4 4 3 4 5 5 5
5 4 4 2 4 3 1 1 0 4 1 0 1 0 1 0 1 2 1 5 5 0 0 0 0 2 1 1 2 2 2 2 2 3 3 3 3 3 4 3 3 3 4 4 4 4 3 4 4 4 3 3 3 3 3 3 4 3 3 3 2 3 3 2 1 3 4 3 3 3 4 4 3 4 4 4 3 4 4 3 4 4 5 5 5 6
1 1 7 2 2 3 2 2 1 0 1 0 1 1 0 1 1 1 4 1 4 3 2 4 2 2 1 3 2 1 1 2 3 4 4 3 3 4 4 4 4 4 4 4 4 3 4 4 4 4 4 4 5 4 4 3 3 3 3 3 2 2 1 1 1 4 3 3 3 4 4 4 3 4 4 4 3 4 4 4 5 5 5 5 6 5
3 1 2 3 5 4 1 2 5 5 4 1 1 1 1 1 3 1 1 1 2 1 3 1 2 4 5 2 0 1 1 3 4 4 3 4 4 4 4 4 4 3 4 4 5 4 4 4 4 5 5 5 4 4 3 3 2 3 3 3 1 0 1 2 2 3 3 3 4 4 4 3 4 4 3 3 3 3 4 5 5 5 5 4 5 5
4 2 3 2 5 4 3 1 3 0 1 1 1 0 2 0 0 2 4 2 2 4 1 5 3 1 1 1 1 3 2 3 2 1 2 4 5 5 4 4 4 4 4 4 4 4 4 4 4 4 5 4 4 3 3 2 2 3 4 3 2 1 1 2 3 2 2 3 3 4 3 3 3 2 3 3 3 4 5 5 5 5 5 5 5 6
3 4 2 6 4 1 1 1 2 2 1 1 4 3 2 1 1 1 1 1 4 8 0 2 5 3 4 3 3 2 3 3 4 4 3 3 4 5 4 4 5 4 4 3 3 3 4 5 5 5 4 5 4 3 1 1 1 1 1 2 2 2 3 2 2 2 3 3 3 3 3 3 2 2 2 3 4 5 5 5 5 5 4 5 6 7
2 2 2 4 5 4 2 2 3 1 0 1 3 3 4 3 2 3 2 1 4 0 2 2 5 3 2 6 5 4 2 2 3 4 6 4 2 3 3 3 3 2 3 4 4 4 4 4 5 5 5 4 3 2 2 3 3 3 2 2 1 2 2 0 1 3 3 3 3 3 2 1 2 2 4 5 5 5 5 4 4 5 5 5 6 6
6 2 2 2 1 2 3 3 4 1 1 1 1 2 1 2 2 0 0 0 2 0 1 1 4 6 4 5 6 5 4 4 3 2 3 2 4 2 1 2 2 2 2 3 3 3 4 4 3 3 3 3 3 2 3 3 3 3 3 1 0 0 0 0 2 2 2 3 3 2 2 3 3 3 4 5 5 4 4 5 5 6 6 6 6 6
2 1 4 1 1 3 2 2 2 4 2 4 3 0 1 0 0 0 0 0 2 1 1 1 1 6 5 5 5 5 3 3 4 5 4 4 3 2 2 2 1 1 2 2 3 3 4 4 4 4 4 3 3 3 3 2 3 3 3 1 1 1 1 0 1 1 2 3 2 3 3 3 3 4 5 3 3 3 5 6 5 5 6 6 7 7
5 2 1 1 1 1 1 1 1 4 3 2 7 5 2 2 1 2 2 6 4 4 1 2 1 5 6 2 3 3 2 1 4 4 4 4 2 1 3 3 1 1 1 2 3 4 4 4 4 4 4 3 3 3 2 2 2 2 2 2 2 2 2 1 1 2 3 3 3 3 3 3 4 4 3 3 4 5 4 5 5 6 6 7 8 8
2 9 4 2 2 1 1 0 1 3 1 2 4 8 11 5 1 1 2 2 6 7 7 3 5 4 3 1 1 0 1 3 3 4 4 3 4 4 4 4 4 3 2 3 4 4 4 4 4 3 3 3 3 3 2 2 2 2 2 1 2 2 1 2 3 4 4 3 3 3 3 3 3 2 2 3 4 4 4 5 6 7 8 8 8 7
2 3 2 1 1 1 1 1 0 1 1 2 2 3 7 9 10 5 4 8 7 7 3 2 1 0 1 0 1 2 1 1 1 3 4 5 6 4 3 4 3 2 3 4 4 4 4 3 3 3 3 4 3 3 3 2 2 2 2 2 1 2 3 3 3 4 3 3 3 3 3 2 2 3 3 3 4 4 5 5 6 6 6 6 7 7
1 1 1 1 1 0 1 1 1 0 4 1 1 1 3 0 3 7 3 3 4 6 4 4 3 3 6 5 4 5 6 6 5 5 6 5 4 3 4 3 2 2 4 4 4 4 3 3 3 3 3 2 1 1 1 2 1 1 0 1 3 3 3 3 4 3 2 3 2 2 2 2 3 3 3 3 4 4 5 6 6 8 7 7 7 6
1 2 2 2 2 1 2 1 2 2 2 1 1 1 2 1 2 1 4 5 8 10 10 6 7 6 4 6 7 7 5 4 4 2 3 2 4 5 2 0 1 3 4 4 3 4 4 4 4 3 3 2 1 3 1 2 2 1 1 2 3 3 3 4 4 2 2 2 2 2 2 3 3 3 3 4 4 5 7 7 7 8 7 6 5 5
5 3 2 1 0 1 1 1 5 3 2 1 1 2 5 4 5 4 2 3 7 7 9 6 6 6 5 6 5 2 2 1 2 2 1 1 3 3 2 1 3 3 3 4 3 4 4 3 3 3 2 2 2 1 2 2 1 1 1 2 3 3 3 3 3 2 2 3 2 3 3 3 3 3 3 4 5 6 7 8 8 7 6 7 6 7
2 1 1 2 0 3 1 2 3 3 1 4 5 2 1 1 3 2 2 3 2 5 7 8 6 5 4 2 1 1 1 2 4 3 3 4 4 3 3 3 2 3 3 4 4 3 4 3 3 2 1 2 2 1 2 1 1 1 1 2 2 4 3 3 2 1 2 2 3 3 3 2 2 3 4 5 5 6 6 6 5 5 5 6 7 7
3 5 3 3 1 1 2 1 1 1 2 4 3 4 2 2 2 1 3 4 3 7 8 8 6 4 4 3 1 2 2 1 4 3 5 5 5 4 2 3 3 4 4 4 3 3 3 2 1 0 0 0 2 2 1 1 2 2 2 2 3 3 3 2 1 1 3 3 3 2 2 2 3 4 5 4 4 4 6 6 5 5 5 5 5 5
5 4 2 2 2 0 3 2 2 4 1 0 5 3 4 2 2 0 1 3 3 5 7 5 5 5 4 4 3 3 4 2 5 3 4 7 5 4 2 4 4 4 4 3 2 4 2 1 0 1 2 1 1 2 1 2 2 3 2 3 3 3 3 2 2 2 2 3 2 2 2 2 4 5 5 5 4 4 4 4 5 6 6 5 4 5
2 1 4 1 2 1 2 1 2 5 4 3 4 3 2 3 1 2 3 1 2 4 4 5 5 5 3 3 4 3 7 6 2 2 2 3 4 6 3 3 4 3 3 3 2 1 0 0 1 1 0 1 1 2 1 3 3 2 3 3 3 3 2 2 1 2 2 2 2 2 3 3 4 4 4 3 3 3 4 4 5 5 5 5 5 5
0 1 0 2 2 2 4 2 6 5 5 3 3 4 1 2 1 2 2 2 4 4 4 6 6 6 4 5 5 7 5 5 5 4 5 6 5 5 5 4 3 2 2 2 3 0 0 2 1 1 0 1 1 1 2 3 3 3 3 3 3 3 1 1 1 2 2 2 3 3 3 4 3 3 3 3 3 4 5 4 3 3 4 3 4 5
4 3 2 2 2 2 2 0 3 1 0 5 9 3 0 2 3 4 3 0 3 4 7 5 6 6 5 4 5 6 6 6 5 5 5 5 4 4 4 4 4 3 4 3 1 0 1 1 0 0 1 2 1 1 1 3 4 3 3 3 3 2 1 1 2 2 2 2 3 3 3 3 3 3 2 3 3 3 4 4 4 5 4 5 5 5
2 1 1 4 6 3 2 2 2 3 4 9 10 6 7 8 5 7 5 2 2 4 5 5 5 7 5 5 5 5 6 5 6 5 5 5 4 4 3 4 4 4 4 3 4 3 1 1 1 0 1 1 1 1 1 4 4 3 3 4 3 1 1 3 2 2 3 3 3 3 3 2 2 3 3 3 3 3 4 5 5 4 3 3 3 4
7 3 5 1 3 5 5 6 3 3 4 9 6 0 3 5 2 8 4 4 5 5 4 4 6 5 6 6 5 5 4 5 6 4 3 4 4 4 4 4 4 4 3 2 1 1 2 1 0 0 1 2 3 2 0 3 4 3 3 3 3 2 3 2 2 3 3 3 2 3 2 2 3 3 3 3 3 4 5 5 5 6 4 4 4 4
1 1 2 1 5 4 5 9 3 1 1 5 7 5 1 0 2 3 5 3 4 4 8 6 6 5 4 4 4 3 5 5 5 5 4 4 4 5 4 4 4 2 2 2 3 2 2 1 1 0 0 1 1 1 2 1 3 3 3 3 3 3 3 3 3 3 2 2 2 2 2 4 3 2 2 2 2 2 3 2 4 5 6 4 4 3
2 1 2 2 2 1 4 2 3 5 3 4 7 6 4 5 5 5 4 4 4 5 5 5 5 4 4 6 5 4 6 5 5 5 3 3 4 5 4 4 4 3 2 2 2 1 1 2 1 1 0 1 0 1 1 2 2 3 5 4 4 4 3 4 3 2 0 1 2 2 4 4 3 2 2 2 2 3 3 2 2 3 4 5 4 4
1 3 2 4 1 4 6 2 5 3 4 4 5 4 7 8 8 8 8 5 4 3 5 5 3 2 4 3 5 5 6 4 3 5 4 4 4 4 4 4 4 4 4 4 2 2 1 2 2 3 2 2 2 2 2 3 3 3 4 4 4 4 4 3 2 2 1 0 0 1 3 4 4 3 2 2 3 5 5 5 2 2 5 5 5 6
2 4 3 4 5 6 7 10 11 5 5 10 10 10 9 7 6 6 6 6 5 5 5 2 3 4 6 5 4 4 5 6 4 4 4 5 4 4 5 5 4 4 4 2 2 4 3 3 3 4 3 3 2 3 3 2 3 3 4 4 4 4 4 3 2 2 1 1 0 3 2 2 3 3 3 3 1 1 3 5 5 6 4 3 2 3
4 5 2 3 1 4 7 7 2 1 1 1 3 9 10 11 8 7 2 4 5 6 6 4 1 2 4 4 4 4 5 6 4 3 5 6 5 5 4 5 5 4 4 3 1 2 2 3 4 4 4 3 3 4 4 3 3 3 3 3 3 3 4 3 2 2 1 1 1 2 2 2 3 3 4 4 5 4 2 4 7 6 4 4 8 11
8 7 8 6 7 6 8 10 6 2 1 6 3 1 3 3 5 6 6 6 6 7 5 4 3 2 3 5 4 5 6 5 6 3 4 4 6 6 5 4 4 4 4 2 2 3 4 4 3 3 3 4 3 4 4 4 4 4 3 3 3 3 3 3 2 1 0 0 1 1 1 1 2 2 3 4 4 5 6 5 1 6 9 8 9 11
Wind_Direction
80 80 82 105 73 8 333 311 121 114 112 109 105 114 123 113 85 80 69 136 108 86 38 65 94 122 133 134 185 192 199 279 197 171 191 198 217 236 202 192 206 212 214 231 226 224 219 226 238 236 215 295 87 39 69 60 31 50 83 71 36 341 19 55 34 23 42 19 347 20 26 311 279 295 305 296 298 309 276 282 284 288 286 292 294 288
71 74 31 321 254 244 256 317 129 104 112 116 117 115 109 107 116 124 131 205 18 108 27 80 95 93 96 121 206 216 221 245 222 213 219 214 216 226 219 225 218 224 281 273 250 260 269 256 253 257 225 172 166 271 84 137 261 328 66 95 331 354 37 72 115 138 125 170 134 227 262 262 277 300 317 309 317 306 302 294 290 288 291 291 286 287
51 80 297 300 272 246 238 114 96 117 115 115 120 121 107 98 99 77 67 64 22 84 139 157 115 86 67 136 178 202 228 236 212 206 209 198 223 237 230 216 223 229 235 234 249 262 247 247 253 240 243 228 198 205 213 240 311 291 151 174 215 259 143 215 199 106 15 279 287 187 261 230 291 258 246 248 273 294 298 294 286 287 288 284 291 285
77 335 312 309 289 159 112 110 97 98 104 119 122 127 138 165 138 129 37 50 18 114 153 148 104 62 336 175 207 210 204 236 237 211 217 201 204 214 215 197 199 214 215 221 226 231 236 233 241 245 243 230 219 230 246 264 258 247 234 237 218 253 245 235 247 173 211 223 241 241 251 275 214 265 311 307 290 305 317 305 298 287 274 287 287 289
123 278 319 305 38 107 99 106 112 109 94 63 128 123 135 157 38 111 146 100 77 45 98 113 85 53 331 306 270 232 208 232 296 88 281 279 243 234 252 243 211 204 203 219 237 245 246 239 235 227 224 224 212 226 228 227 232 217 216 222 215 223 232 238 250 234 222 352 359 352 337 349 342 348 351 342 319 303 288 301 316 303 309 295 291 292
34 329 302 42 59 92 97 82 96 119 100 77 341 147 135 118 113 113 136 104 36 82 267 139 79 293 189 234 250 224 196 243 276 216 246 244 254 235 224 228 231 234 217 203 211 215 220 227 243 247 242 227 228 234 232 212 219 220 230 231 243 251 260 257 255 244 231 238 327 337 340 325 342 311 315 305 297 316 321 307 302 306 301 296 296 294
195 320 56 98 92 88 90 96 307 113 126 115 193 125 124 118 119 134 117 103 137 154 191 241 122 224 330 248 233 222 212 245 264 232 241 244 241 233 227 222 222 217 225 245 257 243 237 240 239 248 233 219 220 235 227 225 229 231 231 226 224 226 245 248 251 246 226 261 253 239 246 238 253 265 279 239 255 264 287 301 299 296 306 304 302 301
6 347 29 52 80 97 105 100 341 123 114 130 143 123 121 121 124 124 91 65 100 64 71 48 100 139 287 261 221 195 214 250 265 254 241 236 235 234 229 219 215 215 215 208 219 226 227 230 219 228 225 213 216 228 220 233 234 228 229 226 234 237 245 245 247 248 220 235 247 250 252 238 239 231 259 280 286 279 274 298 296 304 301 307 308 306
67 352 20 45 53 93 123 156 136 66 110 166 161 127 115 123 127 112 101 111 119 117 65 325 7 62 267 265 342 146 208 254 257 256 252 232 230 232 228 220 217 214 209 203 215 221 224 230 229 228 230 224 224 231 225 227 226 227 232 234 244 253 252 261 247 245 245 232 237 240 248 269 250 245 258 276 283 288 302 304 295 300 299 306 308 307
3 137 322 98 79 111 231 285 211 141 99 12 114 85 91 76 66 92 105 109 83 72 180 216 17 140 279 290 11 10 255 260 239 240 246 237 231 236 239 231 227 223 225 221 219 219 228 232 238 238 249 233 225 229 234 241 242 240 237 241 244 257 250 254 253 245 254 242 251 254 252 252 275 268 276 287 286 290 295 288 291 297 304 306 312 315
135 302 173 82 15 250 239 300 146 246 63 138 105 92 66 65 77 50 65 83 62 40 243 265 305 138 292 244 190 151 220 207 247 288 265 264 260 245 224 218 218 218 219 222 225 230 240 312 247 196 219 234 250 247 243 251 243 245 238 243 250 252 257 252 251 240 254 253 238 248 255 253 263 274 278 295 293 289 298 298 302 307 307 310 305 304
41 8 31 332 81 314 178 51 4 137 125 125 116 122 99 50 48 43 359 47 90 272 261 277 307 68 97 304 253 232 263 208 179 219 253 262 246 234 225 222 222 218 220 221 226 249 256 279 262 217 233 238 244 253 255 251 247 244 245 244 257 267 255 255 252 253 257 256 251 244 248 252 252 259 269 268 274 285 295 294 295 300 310 302 305 318
37 23 320 327 273 43 35 99 52 59 33 76 115 117 128 131 68 30 14 92 178 179 271 311 316 33 263 211 230 262 238 247 203 222 250 255 261 263 270 267 256 234 217 207 222 233 237 226 230 230 240 252 255 242 239 240 236 243 246 238 243 263 259 253 257 253 260 260 254 245 245 248 253 256 257 265 276 279 278 284 294 305 303 318 332 323
9 267 19 336 357 27 105 118 123 96 21 103 121 119 106 130 109 141 216 338 330 294 263 320 290 229 254 302 237 255 285 224 164 204 293 304 260 264 254 225 198 190 197 211 216 225 232 235 232 230 233 231 238 241 239 243 242 240 239 241 236 258 268 265 261 259 269 262 259 253 249 256 262 271 267 258 253 269 270 269 274 283 300 312 301 303
127 60 343 12 34 347 52 64 106 137 147 157 143 124 171 140 158 152 170 173 197 188 266 283 93 235 144 236 284 282 302 325 322 311 298 277 285 321 352 92 127 173 212 215 222 225 228 234 229 225 227 232 237 250 254 243 241 242 253 252 247 263 270 283 282 282 266 268 267 264 256 255 251 248 253 256 248 260 275 284 290 304 311 305 298 306
106 129 267 264 239 10 38 325 116 95 70 339 156 87 70 207 141 123 192 142 167 120 50 315 204 185 154 267 280 332 329 9 347 358 18 17 357 22 48 44 46 239 238 230 227 255 256 241 240 245 246 245 245 249 257 257 253 247 252 264 266 266 286 292 278 264 256 264 269 273 272 262 249 253 258 277 277 267 242 275 294 301 308 309 313 315
207 55 296 319 27 61 17 11 6 178 138 228 60 193 240 138 92 104 53 73 115 54 237 231 323 308 303 349 347 342 43 1 3 359 14 1 346 22 27 9 1 1 359 343 251 261 288 305 294 272 275 278 282 281 267 275 283 269 275 277 274 267 265 271 267 268 268 268 279 277 265 273 281 266 268 273 304 315 322 329 320 329 316 318 327 320
131 151 289 50 42 6 42 111 79 41 148 72 74 230 159 124 119 121 139 341 60 132 237 30 211 305 44 220 324 9 27 308 336 337 322 358 11 29 336 343 337 323 316 302 290 274 257 252 261 277 266 250 256 258 275 280 270 245 244 246 256 278 287 287 285 287 279 277 273 278 284 278 261 295 314 326 313 328 352 345 354 347 346 333 315 318
61 93 336 320 210 292 2 116 35 28 24 158 169 181 110 202 193 342 91 86 100 74 280 315 314 260 180 240 312 238 183 232 338 345 36 28 28 25 19 10 11 17 29 22 12 11 13 11 354 336 331 323 278 262 256 281 303 310 295 268 229 257 261 269 291 283 286 261 262 270 306 322 336 346 334 327 350 16 19 4 346 337 314 319 331 336
36 113 318 324 87 322 24 45 122 299 332 27 53 31 341 99 148 97 171 172 106 192 74 270 40 234 212 219 188 223 223 225 227 43 50 333 10 6 33 18 6 16 5 346 348 336 323 314 309 303 318 331 332 327 321 316 334 341 326 325 301 293 292 314 312 321 317 316 345 339 354 11 360 355 1 6 24 25 23 348 336 328 340 331 325 336
4 102 110 273 312 44 32 5 73 17 335 340 24 343 8 22 214 108 36 63 153 159 170 153 315 276 267 210 167 221 217 206 176 156 232 218 266 259 255 266 331 307 325 313 301 302 309 312 318 318 308 299 307 302 320 342 329 293 304 318 319 326 320 327 308 323 316 357 11 37 26 354 353 358 11 31 37 43 6 342 332 333 323 329 335 339
62 26 134 298 26 6 175 23 195 154 170 148 138 85 151 107 124 124 218 57 80 96 197 119 229 272 269 224 197 180 229 200 215 175 185 238 250 264 276 282 254 289 280 261 273 283 300 312 316 316 323 328 353 338 337 322 335 346 344 331 325 339 301 281 307 337 332 21 70 52 16 351 4 30 31 46 28 21 359 346 344 333 337 345 329 349
137 128 93 53 116 154 282 199 151 173 162 162 161 322 145 125 92 93 130 248 38 42 110 148 115 260 247 278 258 192 208 218 219 183 178 237 253 269 275 268 285 246 259 281 277 293 292 284 280 290 289 288 284 283 300 312 323 304 298 305 308 307 301 298 286 295 98 71 54 20 5 22 25 22 36 41 16 9 353 343 333 343 351 348 340 336
88 73 54 321 316 317 336 342 267 24 143 68 279 121 127 215 199 168 170 181 134 217 73 29 40 252 286 278 267 265 243 246 265 201 220 245 266 277 266 271 259 276 278 288 289 284 278 283 291 311 309 312 310 302 293 283 283 280 272 278 311 336 315 339 25 71 70 60 33 17 21 32 8 38 24 28 358 1 339 335 346 352 357 347 337 338
54 311 115 74 7 338 342 348 356 294 64 140 200 285 326 57 60 163 102 59 94 216 162 110 208 270 272 331 328 322 357 330 284 275 204 240 266 257 258 261 268 274 300 305 308 303 319 318 302 284 279 269 266 273 265 264 265 286 308 328 344 334 334 59 71 80 62 59 31 12 27 17 16 28 19 9 358 357 351 357 357 356 351 345 342 336
92 188 95 117 143 139 170 247 237 228 230 236 315 321 345 123 135 82 157 358 111 258 109 151 247 254 281 320 351 311 349 310 278 254 267 215 228 251 258 264 276 290 280 291 299 303 282 268 286 285 270 263 254 250 272 288 296 318 334 330 300 308 35 73 75 81 67 44 39 17 14 6 12 13 12 10 11 7 4 6 1 349 344 349 336 339
121 78 78 152 149 187 203 210 266 302 71 145 247 88 227 27 46 104 101 85 221 183 176 233 172 128 156 186 277 254 294 228 256 284 241 241 258 255 252 268 263 260 266 273 268 276 303 298 274 271 276 272 284 299 290 292 331 348 342 344 349 346 107 76 76 55 57 41 50 23 9 1 4 5 31 27 22 18 17 3 347 345 341 336 343 349
71 53 13 98 69 171 238 213 312 10 166 212 147 215 236 248 175 112 158 220 172 104 286 243 190 136 222 227 242 261 258 251 252 259 274 268 259 238 236 257 290 296 293 301 305 303 302 297 300 304 304 320 324 317 338 335 341 327 342 358 349 31 69 36 66 39 45 43 20 26 6 6 3 51 40 34 31 25 8 350 338 334 334 348 355 352
123 111 303 80 355 321 314 323 325 30 176 210 205 179 194 213 137 137 232 203 136 102 204 210 152 179 250 217 214 214 188 202 205 221 215 216 252 279 286 267 270 287 313 344 337 328 316 308 304 308 321 321 335 1 341 339 347 354 5 11 17 65 53 351 69 41 42 27 32 5 354 23 57 43 43 33 32 13 348 329 327 342 352 355 355 353
94 47 227 92 102 350 335 352 6 61 324 344 262 243 298 156 228 157 262 345 137 129 257 167 173 235 240 237 216 235 226 214 240 264 299 294 246 251 258 249 268 306 317 312 297 290 284 283 293 295 307 329 343 335 332 337 337 339 333 338 348 11 309 57 55 51 28 32 13 16 62 76 51 47 42 37 14 346 326 336 348 351 354 355 353 353
96 244 134 218 71 307 299 341 42 58 75 337 296 279 53 23 3 234 82 47 80 315 185 137 193 287 263 216 234 269 284 274 298 292 260 262 283 260 232 254 279 286 280 266 277 279 291 299 304 317 332 331 323 307 295 291 299 311 320 299 293 278 301 29 57 52 64 34 40 71 65 59 49 46 43 16 347 338 346 347 348 354 353 355 355 354
63 187 53 104 82 316 306 11 318 43 73 139 294 291 230 143 227 218 184 213 152 208 135 114 290 254 269 260 260 290 317 256 241 265 281 276 280 220 222 252 246 237 256 276 280 296 308 310 319 322 312 304 299 296 285 290 294 313 305 298 273 288 357 58 78 60 59 63 74 62 60 58 54 49 24 4 356 351 340 346 353 356 357 356 358 356
120 135 137 140 87 265 236 120 306 12 114 337 282 224 188 206 194 230 271 236 224 143 122 153 229 215 179 74 104 215 300 290 289 258 265 283 251 213 226 222 213 228 250 270 286 289 287 291 290 283 284 280 268 261 264 249 293 318 293 286 297 336 27 54 57 69 73 65 70 57 55 54 60 46 20 8 352 341 347 354 357 360 359 2 356 352
115 102 130 189 128 234 246 321 243 72 27 243 236 161 159 178 190 164 220 202 214 169 198 191 199 200 17 262 181 242 268 245 223 245 205 222 248 238 235 224 223 241 277 272 263 265 268 272 274 265 253 253 255 242 268 268 257 278 270 264 299 35 26 61 56 84 85 68 55 52 58 55 53 39 18 2 349 350 358 1 4 356 356 356 353 351
109 72 136 153 97 208 356 17 54 254 234 241 274 180 204 308 165 205 258 233 211 226 292 313 287 267 230 212 219 226 231 257 250 265 288 265 215 189 166 201 234 256 268 278 281 278 272 268 271 267 288 283 268 275 320 331 290 307 37 3 28 30 65 73 94 81 86 78 56 55 49 48 44 34 10 0 357 358 2 4 359 358 357 355 347 345
128 102 178 37 105 81 56 53 89 241 230 265 243 219 207 161 189 170 281 243 215 204 196 214 236 230 229 245 250 232 218 255 315 279 256 295 169 157 168 166 263 250 267 265 277 298 303 302 292 282 276 267 318 322 9 317 309 8 341 23 53 50 76 99 96 100 94 85 68 58 42 50 40 28 13 9 6 7 3 2 3 354 346 342 339 344
131 111 84 82 358 196 191 176 246 307 336 96 152 221 177 177 177 159 160 261 206 193 175 201 227 240 236 246 243 288 320 358 30 325 301 210 197 207 159 219 227 255 251 272 251 266 272 271 269 263 256 296 317 328 305 300 337 92 40 35 30 81 95 102 107 126 108 88 71 58 45 40 37 27 29 21 15 8 2 357 351 344 344 340 346 346
43 82 218 107 292 119 135 345 352 19 290 276 240 307 265 213 143 186 97 290 261 215 192 173 190 200 221 265 312 288 36 43 337 256 240 255 238 247 258 254 280 267 256 263 301 293 278 272 270 279 223 283 320 294 273 286 120 97 73 41 72 106 102 101 122 135 110 93 71 69 55 41 33 39 36 30 19 5 353 346 336 337 342 346 346 346
39 73 110 125 141 43 47 98 217 150 250 206 237 218 228 194 136 130 66 299 257 190 193 174 183 202 186 198 215 76 60 2 258 255 249 230 250 241 259 288 267 269 276 259 245 262 274 278 267 284 88 100 10 319 310 163 132 99 76 85 110 113 110 120 151 150 123 103 85 86 81 50 43 43 36 31 16 4 346 339 336 331 338 345 347 339
46 349 10 26 55 132 130 102 262 199 192 275 213 208 218 161 156 74 357 281 237 194 184 167 165 183 224 212 151 127 137 203 254 260 226 213 220 243 208 247 284 291 292 280 248 219 239 281 74 44 20 12 305 289 301 147 114 104 114 114 119 108 125 174 185 154 111 106 105 108 76 56 52 46 34 26 4 355 336 329 332 341 340 341 345 332
1 346 42 203 162 167 130 261 312 301 267 255 206 207 161 188 111 92 184 238 225 164 166 174 195 205 177 166 164 178 229 193 188 222 277 277 309 297 267 236 240 240 259 284 282 304 58 132 139 144 231 260 281 291 178 139 109 107 117 128 111 133 186 194 160 125 116 116 104 86 65 46 51 42 39 30 7 330 324 333 336 331 335 335 336 333
31 98 321 76 94 181 193 170 225 238 242 147 26 139 200 93 103 196 237 221 145 176 189 185 197 221 178 193 189 211 233 239 255 282 275 266 238 256 282 286 299 296 237 230 258 272 93 71 63 20 335 271 258 276 179 137 113 132 131 123 141 186 217 156 134 110 102 91 79 70 61 52 36 44 40 23 10 348 328 326 333 331 331 329 334 327
194 127 206 176 191 65 51 53 354 322 237 130 135 78 54 122 224 201 212 239 185 181 169 211 202 232 170 233 222 222 248 273 262 262 261 268 271 274 297 318 314 289 295 319 335 295 107 83 81 276 252 282 291 294 178 125 128 139 142 141 183 185 133 118 100 94 87 67 54 51 52 41 34 26 31 21 6 344 325 327 342 343 339 340 334 327
212 119 255 265 185 149 149 162 196 210 184 185 150 175 213 204 185 175 137 146 208 165 184 200 230 221 198 202 226 231 231 244 287 266 272 281 271 275 274 263 259 269 275 248 224 256 213 170 200 232 289 301 322 318 185 137 140 154 147 174 180 128 94 86 82 85 69 50 39 37 41 30 29 27 27 22 358 343 336 336 338 335 339 335 326 319
211 178 178 162 223 142 195 215 247 230 189 203 194 201 218 219 166 178 146 160 169 235 186 165 226 228 196 203 215 210 231 227 227 229 213 256 277 278 275 265 261 270 269 263 271 274 214 193 191 308 340 345 350 338 9 152 136 148 155 186 141 141 119 108 87 78 58 32 18 33 29 39 36 29 26 7 10 358 344 339 344 338 335 345 335 324
328 171 197 82 256 261 253 223 210 287 213 242 248 215 238 305 239 165 159 155 243 199 168 190 224 228 194 185 175 231 215 230 228 260 251 259 262 267 255 273 284 252 249 260 270 247 217 154 120 111 6 329 360 14 46 96 130 151 194 151 140 134 138 119 96 74 43 6 9 358 4 56 45 28 12 353 358 343 321 321 315 323 317 331 325 314
249 188 119 192 271 24 272 339 172 229 268 248 225 253 237 232 230 191 217 201 207 191 204 234 214 199 179 163 191 208 237 233 232 252 256 274 271 267 272 279 281 270 254 229 244 173 176 180 217 264 209 257 326 69 74 84 71 129 138 151 144 141 128 106 105 100 41 5 340 351 24 29 21 31 349 338 339 338 321 311 308 320 321 319 324 326
308 182 145 219 149 175 232 236 242 231 230 239 219 243 254 240 234 221 216 210 198 195 196 211 170 163 145 173 204 199 244 240 215 259 266 253 257 268 277 268 267 290 256 223 242 197 172 172 209 232 222 238 223 147 118 109 122 131 133 137 146 134 117 113 122 150 188 276 291 6 21 18 359 5 2 356 3 348 336 329 328 340 327 330 327 338
158 122 216 177 189 277 312 283 279 279 252 247 236 237 232 223 223 233 216 225 228 232 242 184 179 169 166 209 188 205 241 265 230 229 236 257 263 264 252 249 245 238 259 271 228 176 195 208 218 230 211 237 192 160 142 143 149 155 147 152 150 137 125 138 152 162 164 187 73 29 11 9 356 350 349 347 20 325 295 307 317 318 310 302 286 312
108 208 201 103 281 287 218 241 136 139 291 312 249 227 224 228 220 234 184 210 208 213 235 212 200 191 205 210 193 194 220 253 254 199 230 232 238 242 248 251 252 253 257 241 220 195 223 218 213 221 218 237 182 169 167 169 173 169 151 141 146 139 137 152 140 129 144 44 54 16 15 5 349 344 350 352 345 343 308 297 311 314 322 329 347 334
204 200 145 182 169 234 241 234 200 167 211 225 197 223 216 185 160 176 198 205 206 215 185 176 206 240 244 251 204 195 224 229 250 211 228 243 243 232 228 230 243 254 251 222 183 240 227 237 220 222 238 230 173 180 180 179 179 166 164 154 154 144 144 140 134 138 134 39 13 349 24 6 347 345 353 346 348 342 335 323 305 327 334 359 346 339